Location: Casteau
(50.5142°N, 4.0161°E)
Time: 22:23:26
(UTC+00:00)

Transit 2A - Pass Details

Date: 04 August 2021
Orbit: 594 x 964 km, 66.7° (Epoch: 26 September)

Event Time Altitude Azimuth Distance (km) Brightness Sun altitude
Rises 12:10:43 0° 324° (NW) 3,157 8.9 56.3°
Reaches altitude 10° 12:13:11 10° 333° (NNW) 2,292 8.3 56.3°
Maximum altitude 12:18:01 35° 39° (NE) 1,294 7.3 56.1°
Drops below altitude 10° 12:23:17 10° 105° (ESE) 2,512 8.8 55.9°
Sets 12:26:07 0° 114° (ESE) 3,503 9.5 55.8°
